Zurück zum Katalog

STARLINK-31303

AktivKommunikationVLEO
NORAD 59239·PAYLOAD·🇺🇸 United States

Gestartet Mar 16, 2024 von Cape Canaveral Space Force Station

Loading…

Nächste Überflüge (nächste 24 Stunden)

TLE

AktuellSource: CelesTrak SupGP

Epoche: Sep 14, 2026, 22:40 UTC

1 59239C 24049J   26257.94493056 -.00002513  00000+0 -91131-4 0  2577
2 59239  43.0018 143.8809 0001249 282.7969 121.7988 15.27534920    13

Verfolge STARLINK-31303 in Echtzeit mit AllMySat

Download on the App Store